ANA378 RJCN-RJTT

Flight info

Callsign ANA378
Flight time 1h 45m
Altitude 26000
Route NOMOX Y112 OMGOL Y111 MQE Y106 RUBIS Y10 GODIN
Aircraft A21N/M-Q/LB1

Departure

Time 2026-05-04 06:09
Airport Nakashibetsu Airport (RJCN)

Arrival

Time 2026-05-04 07:54
Airport Tokyo Haneda International Airport (RJTT)
Time Latitude Longitude Altitude Speed Heading
2026-05-04 05:42 43.57344 144.95527 229 ft 0 kts 160°
2026-05-04 05:59 43.57347 144.95526 229 ft 3 kts 160°
2026-05-04 05:59 43.57372 144.95517 231 ft 4 kts 177°
2026-05-04 06:00 43.57398 144.95522 231 ft 4 kts 205°
2026-05-04 06:00 43.57418 144.95543 231 ft 4 kts 236°
2026-05-04 06:00 43.57429 144.95576 229 ft 4 kts 255°
2026-05-04 06:00 43.57434 144.95607 231 ft 1 kts 257°
2026-05-04 06:01 43.57434 144.95608 231 ft 0 kts 257°
2026-05-04 06:06 43.57438 144.95571 229 ft 13 kts 306°
2026-05-04 06:06 43.57518 144.95507 229 ft 14 kts 342°
2026-05-04 06:06 43.57600 144.95435 231 ft 15 kts 278°
2026-05-04 06:06 43.57571 144.95289 233 ft 16 kts 251°
2026-05-04 06:07 43.57532 144.95135 233 ft 17 kts 251°
2026-05-04 06:07 43.57492 144.94979 234 ft 14 kts 250°
2026-05-04 06:07 43.57435 144.94870 233 ft 14 kts 239°
2026-05-04 06:07 43.57434 144.94842 234 ft 2 kts 318°
2026-05-04 06:08 43.57447 144.94852 233 ft 3 kts 58°
2026-05-04 06:08 43.57466 144.94894 234 ft 7 kts 58°
2026-05-04 06:08 43.57492 144.94952 232 ft 8 kts 62°
2026-05-04 06:08 43.57556 144.95219 235 ft 67 kts 72°
2026-05-04 06:09 43.57795 144.96185 232 ft 144 kts 71°
2026-05-04 06:09 43.58149 144.97597 845 ft 161 kts 71°
2026-05-04 06:11 43.52793 144.97083 5548 ft 239 kts 255°
2026-05-04 06:11 43.52440 144.94834 6229 ft 241 kts 253°
2026-05-04 06:13 43.49291 144.78496 10311 ft 269 kts 249°
2026-05-04 06:14 43.44821 144.61482 11440 ft 353 kts 239°
2026-05-04 06:14 43.43414 144.58759 11818 ft 355 kts 227°
2026-05-04 06:15 43.41556 144.56504 12289 ft 358 kts 217°
2026-05-04 06:15 43.39512 144.54535 12870 ft 359 kts 216°
2026-05-04 06:15 43.37448 144.52580 13402 ft 360 kts 216°
2026-05-04 06:15 43.35385 144.50609 13882 ft 361 kts 216°
2026-05-04 06:16 43.33239 144.48804 14428 ft 364 kts 208°
2026-05-04 06:16 43.30843 144.47637 15075 ft 370 kts 197°
2026-05-04 06:16 43.28265 144.47251 15696 ft 376 kts 187°
2026-05-04 06:16 43.25633 144.47259 16214 ft 378 kts 186°
2026-05-04 06:17 43.22995 144.47307 16673 ft 379 kts 186°
2026-05-04 06:17 43.20354 144.47338 17131 ft 378 kts 186°
2026-05-04 06:17 43.17753 144.47355 17615 ft 379 kts 187°
2026-05-04 06:17 43.15109 144.47360 17989 ft 379 kts 187°
2026-05-04 06:18 43.12468 144.47361 18343 ft 380 kts 187°
2026-05-04 06:18 43.09817 144.47368 18699 ft 382 kts 187°
2026-05-04 06:18 43.07158 144.47375 19076 ft 383 kts 188°
2026-05-04 06:20 42.88780 144.44010 22122 ft 384 kts 198°
2026-05-04 06:20 42.86150 144.43331 22466 ft 385 kts 198°
2026-05-04 06:21 42.76537 144.40847 23870 ft 378 kts 199°
2026-05-04 06:21 42.73963 144.40188 24273 ft 375 kts 199°
2026-05-04 06:22 42.70577 144.39323 24668 ft 373 kts 200°
2026-05-04 06:22 42.68857 144.38881 24893 ft 372 kts 200°
2026-05-04 06:25 42.36559 144.28019 26066 ft 367 kts 205°
2026-05-04 06:25 42.34115 144.27009 26046 ft 366 kts 205°
2026-05-04 06:26 42.31712 144.26020 26050 ft 366 kts 205°
2026-05-04 06:26 42.29275 144.25014 26043 ft 366 kts 205°
2026-05-04 06:26 42.26838 144.24004 26048 ft 366 kts 205°
2026-05-04 06:26 42.24403 144.22997 25993 ft 366 kts 205°
2026-05-04 06:27 42.14605 144.18968 26048 ft 368 kts 205°
2026-05-04 06:28 42.12168 144.17966 26072 ft 365 kts 205°
2026-05-04 06:28 42.09740 144.16971 26062 ft 365 kts 205°
2026-05-04 06:28 42.07345 144.15988 26060 ft 365 kts 205°
2026-05-04 06:28 42.04914 144.14993 26059 ft 365 kts 205°
2026-05-04 06:29 42.02487 144.14005 26058 ft 365 kts 205°
2026-05-04 06:29 42.00059 144.13009 26062 ft 365 kts 205°
2026-05-04 06:29 41.97617 144.12008 26035 ft 367 kts 205°
2026-05-04 06:29 41.95173 144.11010 26049 ft 367 kts 205°
2026-05-04 06:30 41.92724 144.10012 26062 ft 367 kts 205°
2026-05-04 06:30 41.90278 144.09017 26094 ft 365 kts 205°
2026-05-04 06:30 41.87851 144.08028 26081 ft 364 kts 205°
2026-05-04 06:30 41.85425 144.07045 26075 ft 364 kts 205°
2026-05-04 06:31 41.83034 144.06074 26072 ft 364 kts 205°
2026-05-04 06:31 41.80608 144.05085 26070 ft 364 kts 205°
2026-05-04 06:31 41.78187 144.04100 26071 ft 364 kts 205°
2026-05-04 06:31 41.75759 144.03117 26069 ft 364 kts 205°
2026-05-04 06:32 41.73326 144.02128 26040 ft 367 kts 205°
2026-05-04 06:33 41.56200 143.95206 26090 ft 367 kts 205°
2026-05-04 06:34 41.53755 143.94223 26090 ft 367 kts 205°
2026-05-04 06:34 41.51300 143.93233 26089 ft 367 kts 205°
2026-05-04 06:34 41.48843 143.92243 26055 ft 370 kts 205°
2026-05-04 06:34 41.46377 143.91251 26096 ft 370 kts 205°
2026-05-04 06:35 41.43954 143.90278 26090 ft 368 kts 205°
2026-05-04 06:36 41.26813 143.83409 26099 ft 367 kts 205°
2026-05-04 06:37 41.24349 143.82422 26066 ft 371 kts 205°
2026-05-04 06:37 41.21882 143.81439 26097 ft 369 kts 205°
2026-05-04 06:37 41.19419 143.80461 26097 ft 369 kts 205°
2026-05-04 06:37 41.16958 143.79478 26099 ft 369 kts 205°
2026-05-04 06:38 41.14498 143.78497 26100 ft 369 kts 205°
2026-05-04 06:38 41.12039 143.77518 26100 ft 369 kts 205°
2026-05-04 06:40 40.94895 143.70711 26116 ft 367 kts 205°
2026-05-04 06:40 40.92449 143.69747 26114 ft 366 kts 205°
2026-05-04 06:40 40.89997 143.68779 26116 ft 366 kts 205°
2026-05-04 06:40 40.87549 143.67811 26115 ft 366 kts 205°
2026-05-04 06:41 40.85109 143.66845 26117 ft 366 kts 205°
2026-05-04 06:41 40.82664 143.65878 26115 ft 366 kts 205°
2026-05-04 06:41 40.80273 143.64790 26115 ft 361 kts 210°
2026-05-04 06:41 40.78042 143.63312 26088 ft 357 kts 216°
2026-05-04 06:42 40.76029 143.61413 26114 ft 354 kts 223°
2026-05-04 06:42 40.74281 143.59137 26118 ft 353 kts 229°
2026-05-04 06:42 40.72801 143.56557 26121 ft 353 kts 234°
2026-05-04 06:44 40.63115 143.37909 26123 ft 352 kts 233°
2026-05-04 06:44 40.61724 143.35260 26122 ft 352 kts 233°
2026-05-04 06:44 40.60331 143.32615 26118 ft 352 kts 233°
2026-05-04 06:45 40.58934 143.29968 26117 ft 352 kts 233°
2026-05-04 06:45 40.57535 143.27319 26118 ft 352 kts 233°
2026-05-04 06:45 40.56142 143.24671 26124 ft 352 kts 233°
2026-05-04 06:45 40.54750 143.22025 26126 ft 352 kts 233°
2026-05-04 06:46 40.53356 143.19378 26131 ft 351 kts 233°
2026-05-04 06:46 40.51964 143.16734 26123 ft 351 kts 233°
2026-05-04 06:46 40.50590 143.14129 26122 ft 351 kts 233°
2026-05-04 06:46 40.49199 143.11483 26121 ft 351 kts 233°
2026-05-04 06:48 40.39448 142.93084 26126 ft 350 kts 233°
2026-05-04 06:48 40.38056 142.90468 26125 ft 350 kts 233°
2026-05-04 06:49 40.36665 142.87855 26125 ft 350 kts 233°
2026-05-04 06:50 40.26901 142.69553 26126 ft 350 kts 233°
2026-05-04 06:51 40.25502 142.66943 26129 ft 350 kts 233°
2026-05-04 06:51 40.24105 142.64337 26128 ft 350 kts 233°
2026-05-04 06:51 40.22709 142.61728 26131 ft 350 kts 233°
2026-05-04 06:51 40.21329 142.59150 26130 ft 350 kts 233°
2026-05-04 06:52 40.19930 142.56547 26131 ft 350 kts 233°
2026-05-04 06:52 40.18528 142.53953 26113 ft 350 kts 233°
2026-05-04 06:52 40.17119 142.51337 26124 ft 351 kts 233°
2026-05-04 06:52 40.15706 142.48714 26101 ft 352 kts 233°
2026-05-04 06:53 40.14294 142.46093 26114 ft 353 kts 233°
2026-05-04 06:53 40.12879 142.43472 26121 ft 353 kts 233°
2026-05-04 06:53 40.11460 142.40856 26124 ft 353 kts 233°
2026-05-04 06:53 40.10045 142.38239 26125 ft 353 kts 233°
2026-05-04 06:54 40.08627 142.35621 26133 ft 353 kts 233°
2026-05-04 06:54 40.07212 142.33009 26133 ft 353 kts 233°
2026-05-04 06:54 40.05797 142.30393 26133 ft 353 kts 233°
2026-05-04 06:54 40.04397 142.27810 26135 ft 353 kts 233°
2026-05-04 06:55 40.02977 142.25197 26140 ft 353 kts 233°
2026-05-04 06:55 40.01558 142.22586 26139 ft 353 kts 233°
2026-05-04 06:55 40.00140 142.19977 26138 ft 352 kts 233°
2026-05-04 06:55 39.98720 142.17369 26138 ft 352 kts 233°
2026-05-04 06:56 39.97298 142.14759 26135 ft 352 kts 233°
2026-05-04 06:57 39.87111 141.96720 25855 ft 355 kts 226°
2026-05-04 06:58 39.85217 141.94637 25611 ft 358 kts 219°
2026-05-04 06:58 39.83074 141.92950 25470 ft 362 kts 213°
2026-05-04 06:58 39.80785 141.91522 25380 ft 366 kts 210°
2026-05-04 06:58 39.78458 141.90124 25409 ft 370 kts 210°
2026-05-04 06:59 39.76122 141.88718 25438 ft 370 kts 210°
2026-05-04 06:59 39.73799 141.87312 25455 ft 368 kts 210°
2026-05-04 06:59 39.71476 141.85900 25439 ft 368 kts 210°
2026-05-04 06:59 39.69180 141.84502 25439 ft 370 kts 211°
2026-05-04 07:01 39.52900 141.74625 25488 ft 370 kts 210°
2026-05-04 07:01 39.50576 141.73220 25504 ft 367 kts 211°
2026-05-04 07:02 39.48264 141.71814 25519 ft 367 kts 211°
2026-05-04 07:02 39.45938 141.70399 25474 ft 369 kts 211°
2026-05-04 07:02 39.43618 141.68997 25519 ft 366 kts 211°
2026-05-04 07:02 39.41310 141.67603 25508 ft 365 kts 211°
2026-05-04 07:03 39.38997 141.66203 25510 ft 365 kts 211°
2026-05-04 07:03 39.36730 141.64835 25513 ft 365 kts 211°
2026-05-04 07:03 39.34428 141.63448 25512 ft 365 kts 211°
2026-05-04 07:03 39.32126 141.62061 25535 ft 365 kts 211°
2026-05-04 07:04 39.29829 141.60679 25517 ft 365 kts 211°
2026-05-04 07:04 39.27526 141.59296 25507 ft 365 kts 211°
2026-05-04 07:04 39.25233 141.57921 25553 ft 361 kts 211°
2026-05-04 07:04 39.22960 141.56559 25529 ft 360 kts 211°
2026-05-04 07:05 39.20694 141.55195 25447 ft 360 kts 211°
2026-05-04 07:05 39.18412 141.53821 25495 ft 363 kts 211°
2026-05-04 07:05 39.16111 141.52441 25500 ft 365 kts 211°
2026-05-04 07:05 39.13806 141.51062 25504 ft 366 kts 211°
2026-05-04 07:06 39.09199 141.48310 25555 ft 365 kts 211°
2026-05-04 07:06 39.06903 141.46936 25559 ft 362 kts 212°
2026-05-04 07:06 39.04619 141.45574 25553 ft 362 kts 212°
2026-05-04 07:07 39.02332 141.44212 25524 ft 363 kts 212°
2026-05-04 07:08 38.86267 141.34651 25545 ft 364 kts 212°
2026-05-04 07:09 38.83964 141.33285 25541 ft 365 kts 212°
2026-05-04 07:09 38.81662 141.31920 25547 ft 365 kts 212°
2026-05-04 07:09 38.80132 141.31013 25555 ft 365 kts 212°
2026-05-04 07:09 38.77053 141.29189 25554 ft 365 kts 212°
2026-05-04 07:10 38.75528 141.28289 25559 ft 365 kts 212°
2026-05-04 07:10 38.73225 141.26926 25553 ft 365 kts 212°
2026-05-04 07:12 38.57055 141.17397 25553 ft 366 kts 212°
2026-05-04 07:12 38.54772 141.16057 25566 ft 366 kts 212°
2026-05-04 07:12 38.52463 141.14698 25564 ft 366 kts 212°
2026-05-04 07:12 38.50153 141.13340 25559 ft 366 kts 212°
2026-05-04 07:13 38.47837 141.11981 25562 ft 366 kts 212°
2026-05-04 07:13 38.45526 141.10627 25522 ft 366 kts 212°
2026-05-04 07:13 38.43199 141.09267 25538 ft 367 kts 212°
2026-05-04 07:14 38.33903 141.03830 25565 ft 368 kts 212°
2026-05-04 07:14 38.31578 141.02473 25564 ft 368 kts 212°
2026-05-04 07:15 38.29255 141.01118 25569 ft 368 kts 212°
2026-05-04 07:15 38.26925 140.99759 25566 ft 367 kts 212°
2026-05-04 07:15 38.24601 140.98407 25566 ft 368 kts 212°
2026-05-04 07:15 38.22274 140.97053 25566 ft 368 kts 212°
2026-05-04 07:16 38.19943 140.95695 25525 ft 370 kts 212°
2026-05-04 07:16 38.17629 140.94348 25504 ft 371 kts 212°
2026-05-04 07:16 38.15283 140.92985 25516 ft 371 kts 212°
2026-05-04 07:16 38.12986 140.91515 25520 ft 368 kts 215°
2026-05-04 07:17 38.10768 140.89901 25522 ft 367 kts 216°
2026-05-04 07:17 38.08557 140.88275 25522 ft 367 kts 216°
2026-05-04 07:17 38.06351 140.86647 25521 ft 367 kts 216°
2026-05-04 07:17 38.04140 140.85023 25518 ft 367 kts 216°
2026-05-04 07:18 38.01927 140.83400 25532 ft 368 kts 216°
2026-05-04 07:18 37.99703 140.81771 25537 ft 368 kts 216°
2026-05-04 07:18 37.97487 140.80148 25541 ft 368 kts 216°
2026-05-04 07:18 37.95266 140.78519 25574 ft 368 kts 216°
2026-05-04 07:19 37.93051 140.76897 25578 ft 367 kts 216°
2026-05-04 07:19 37.90850 140.75292 25581 ft 362 kts 216°
2026-05-04 07:19 37.88668 140.73706 25600 ft 365 kts 216°
2026-05-04 07:19 37.86454 140.72095 25590 ft 367 kts 216°
2026-05-04 07:20 37.84241 140.70486 25597 ft 367 kts 216°
2026-05-04 07:20 37.82027 140.68872 25595 ft 367 kts 216°
2026-05-04 07:20 37.79808 140.67259 25591 ft 367 kts 216°
2026-05-04 07:20 37.77591 140.65647 25592 ft 367 kts 216°
2026-05-04 07:22 37.59941 140.59296 25608 ft 384 kts 202°
2026-05-04 07:22 37.57333 140.58550 25608 ft 385 kts 202°
2026-05-04 07:23 37.54722 140.57803 25603 ft 385 kts 202°
2026-05-04 07:23 37.52107 140.57055 25606 ft 385 kts 202°
2026-05-04 07:23 37.49492 140.56309 25607 ft 385 kts 202°
2026-05-04 07:23 37.46907 140.55567 25591 ft 386 kts 202°
2026-05-04 07:24 37.44296 140.54816 25601 ft 384 kts 202°
2026-05-04 07:24 37.41711 140.54076 25600 ft 378 kts 202°
2026-05-04 07:24 37.39136 140.53339 25606 ft 382 kts 202°
2026-05-04 07:24 37.36526 140.52587 25611 ft 385 kts 202°
2026-05-04 07:25 37.33914 140.51838 25612 ft 385 kts 202°
2026-05-04 07:26 37.15653 140.46637 25620 ft 379 kts 202°
2026-05-04 07:27 37.13080 140.45905 25606 ft 382 kts 202°
2026-05-04 07:27 37.10477 140.45161 25619 ft 386 kts 202°
2026-05-04 07:27 37.07870 140.44426 25413 ft 379 kts 202°
2026-05-04 07:27 37.05295 140.43702 25008 ft 380 kts 202°
2026-05-04 07:28 37.02709 140.42969 24750 ft 381 kts 202°
2026-05-04 07:28 37.00125 140.42237 24220 ft 378 kts 202°
2026-05-04 07:28 36.97567 140.41512 23447 ft 375 kts 202°
2026-05-04 07:28 36.95037 140.40797 22599 ft 371 kts 202°
2026-05-04 07:29 36.92542 140.40095 21968 ft 363 kts 202°
2026-05-04 07:29 36.90092 140.39413 21570 ft 359 kts 201°
2026-05-04 07:29 36.87657 140.38729 21197 ft 358 kts 202°
2026-05-04 07:29 36.85237 140.38049 20743 ft 356 kts 202°
2026-05-04 07:30 36.82865 140.37384 20273 ft 352 kts 202°
2026-05-04 07:30 36.80484 140.36713 19714 ft 351 kts 202°
2026-05-04 07:30 36.78114 140.36046 19166 ft 347 kts 202°
2026-05-04 07:30 36.75756 140.35385 18626 ft 347 kts 202°
2026-05-04 07:31 36.73386 140.34791 18073 ft 347 kts 199°
2026-05-04 07:31 36.71024 140.34310 17401 ft 341 kts 199°
2026-05-04 07:33 36.53961 140.30886 14515 ft 372 kts 196°
2026-05-04 07:33 36.51401 140.30378 14268 ft 373 kts 195°
2026-05-04 07:33 36.48839 140.29871 14036 ft 373 kts 195°
2026-05-04 07:33 36.46303 140.29260 13801 ft 369 kts 201°
2026-05-04 07:34 36.43954 140.28066 13532 ft 363 kts 213°
2026-05-04 07:34 36.41950 140.26244 13301 ft 354 kts 225°
2026-05-04 07:34 36.40274 140.24025 13047 ft 353 kts 226°
2026-05-04 07:34 36.38225 140.22299 12776 ft 361 kts 211°
2026-05-04 07:35 36.35827 140.21272 12514 ft 370 kts 198°
2026-05-04 07:35 36.33246 140.20868 12260 ft 376 kts 191°
2026-05-04 07:35 36.30647 140.20626 11990 ft 368 kts 191°
2026-05-04 07:35 36.28149 140.20394 11765 ft 351 kts 191°
2026-05-04 07:36 36.25779 140.20153 11604 ft 333 kts 191°
2026-05-04 07:36 36.23528 140.19906 11455 ft 317 kts 192°
2026-05-04 07:38 36.09761 140.18325 10506 ft 278 kts 192°
2026-05-04 07:38 36.07834 140.18103 10385 ft 279 kts 191°
2026-05-04 07:38 36.05903 140.17884 10264 ft 279 kts 191°
2026-05-04 07:38 36.03961 140.17662 10144 ft 280 kts 191°
2026-05-04 07:39 36.02020 140.17441 10023 ft 281 kts 191°
2026-05-04 07:39 36.00095 140.17228 9890 ft 273 kts 194°
2026-05-04 07:39 35.98215 140.17014 9780 ft 275 kts 194°
2026-05-04 07:39 35.96313 140.16796 9577 ft 274 kts 194°
2026-05-04 07:40 35.94406 140.16578 9232 ft 275 kts 194°
2026-05-04 07:40 35.92503 140.16360 8838 ft 276 kts 193°
2026-05-04 07:40 35.90584 140.16141 8446 ft 277 kts 192°
2026-05-04 07:40 35.88668 140.15924 8065 ft 277 kts 192°
2026-05-04 07:41 35.86744 140.15707 7679 ft 277 kts 191°
2026-05-04 07:41 35.84820 140.15490 7284 ft 278 kts 191°
2026-05-04 07:41 35.82889 140.15271 6915 ft 277 kts 191°
2026-05-04 07:41 35.80970 140.15056 6518 ft 275 kts 191°
2026-05-04 07:42 35.79062 140.14840 6118 ft 276 kts 189°
2026-05-04 07:42 35.77148 140.14624 5735 ft 274 kts 190°
2026-05-04 07:42 35.75275 140.14413 5339 ft 275 kts 189°
2026-05-04 07:42 35.73374 140.14216 4971 ft 274 kts 187°
2026-05-04 07:43 35.71477 140.14553 4607 ft 280 kts 162°
2026-05-04 07:43 35.69824 140.15866 4510 ft 288 kts 142°
2026-05-04 07:43 35.68387 140.17597 4496 ft 290 kts 138°
2026-05-04 07:43 35.66974 140.19353 4515 ft 289 kts 139°
2026-05-04 07:44 35.65488 140.20996 4515 ft 285 kts 151°
2026-05-04 07:44 35.63775 140.21996 4514 ft 261 kts 167°
2026-05-04 07:44 35.62121 140.22712 4505 ft 244 kts 170°
2026-05-04 07:44 35.60542 140.23089 4490 ft 214 kts 193°
2026-05-04 07:45 35.59221 140.22620 4505 ft 193 kts 219°
2026-05-04 07:45 35.58342 140.21460 4235 ft 181 kts 242°
2026-05-04 07:45 35.57747 140.20115 4035 ft 178 kts 243°
2026-05-04 07:45 35.57241 140.18728 3979 ft 181 kts 256°
2026-05-04 07:46 35.57061 140.17243 3997 ft 176 kts 264°
2026-05-04 07:46 35.56989 140.15723 4014 ft 178 kts 266°
2026-05-04 07:46 35.56958 140.14209 4000 ft 181 kts 268°
2026-05-04 07:46 35.56951 140.12648 4009 ft 183 kts 268°
2026-05-04 07:47 35.56950 140.11089 4006 ft 180 kts 268°
2026-05-04 07:47 35.56950 140.09553 4002 ft 181 kts 268°
2026-05-04 07:47 35.56950 140.07993 4007 ft 183 kts 268°
2026-05-04 07:49 35.56951 139.98332 2750 ft 157 kts 265°
2026-05-04 07:49 35.56952 139.97027 2575 ft 145 kts 264°
2026-05-04 07:49 35.56952 139.95823 2379 ft 140 kts 264°
2026-05-04 07:50 35.56952 139.94628 2159 ft 140 kts 263°
2026-05-04 07:50 35.56951 139.93433 1942 ft 140 kts 263°
2026-05-04 07:50 35.56951 139.92231 1714 ft 140 kts 263°
2026-05-04 07:50 35.56951 139.91047 1490 ft 140 kts 262°
2026-05-04 07:51 35.56951 139.89847 1267 ft 141 kts 262°
2026-05-04 07:51 35.56954 139.88679 1053 ft 126 kts 262°
2026-05-04 07:51 35.56912 139.87640 817 ft 120 kts 254°
2026-05-04 07:51 35.56604 139.86682 694 ft 122 kts 239°
2026-05-04 07:52 35.56230 139.85759 645 ft 119 kts 242°
2026-05-04 07:52 35.55869 139.84843 487 ft 119 kts 238°
2026-05-04 07:52 35.55422 139.83968 396 ft 118 kts 232°
2026-05-04 07:52 35.54916 139.83215 314 ft 113 kts 223°
2026-05-04 07:53 35.54361 139.82560 167 ft 109 kts 221°
2026-05-04 07:54 35.52900 139.80748 52 ft 16 kts 249°
2026-05-04 07:55 35.52900 139.80613 54 ft 18 kts 307°
2026-05-04 07:55 35.53004 139.80525 54 ft 19 kts 326°
2026-05-04 07:55 35.53121 139.80440 51 ft 20 kts 333°
2026-05-04 07:55 35.53237 139.80359 46 ft 20 kts 329°
2026-05-04 07:56 35.53306 139.80309 43 ft 13 kts 329°
2026-05-04 07:56 35.53412 139.80234 37 ft 14 kts 330°
2026-05-04 07:56 35.53500 139.80172 35 ft 15 kts 330°
2026-05-04 07:56 35.53592 139.80106 31 ft 16 kts 330°
2026-05-04 07:57 35.53669 139.80051 27 ft 2 kts 330°
2026-05-04 07:57 35.53687 139.80039 29 ft 4 kts 338°
2026-05-04 07:57 35.53719 139.80034 26 ft 6 kts
2026-05-04 07:57 35.53758 139.80068 27 ft 8 kts 56°
2026-05-04 07:58 35.53789 139.80136 27 ft 10 kts 62°
2026-05-04 07:58 35.53843 139.80199 27 ft 12 kts 11°
2026-05-04 07:58 35.53925 139.80164 27 ft 13 kts 330°
2026-05-04 07:58 35.54008 139.80103 24 ft 14 kts 328°
2026-05-04 07:59 35.54068 139.80061 25 ft 16 kts 331°
2026-05-04 07:59 35.54167 139.79992 25 ft 17 kts 330°
2026-05-04 07:59 35.54274 139.79916 27 ft 18 kts 330°
2026-05-04 07:59 35.54390 139.79835 28 ft 20 kts 330°
2026-05-04 08:00 35.54513 139.79747 28 ft 21 kts 330°
2026-05-04 08:00 35.54646 139.79653 29 ft 22 kts 329°
2026-05-04 08:00 35.54785 139.79552 32 ft 24 kts 330°
2026-05-04 08:02 35.55013 139.79108 32 ft 0 kts 245°
2026-05-04 08:02 35.55003 139.79085 32 ft 5 kts 239°
2026-05-04 08:02 35.54995 139.79069 33 ft 0 kts 238°